Wetterdaten: Woche 09.01.06 - 15.01.06 (KW2)
Datum Zeit Temperatur Luftfeuchte Luftdruck Niederschlag Windrichtung Wind
09.01.2006 00:00 -5,7 C 98 % 1026 hPa 0,0 l/m N 5,5 km/h (1 Bft)
09.01.2006 01:00 -5,8 C 99 % 1026 hPa 0,0 l/m N 1,5 km/h (1 Bft)
09.01.2006 02:00 -5,9 C 99 % 1026 hPa 0,0 l/m N 3,8 km/h (1 Bft)
09.01.2006 03:00 -6,0 C 100 % 1026 hPa 0,0 l/m N 0,9 km/h (0 Bft)
09.01.2006 04:00 -6,2 C 100 % 1026 hPa 0,0 l/m N 3,3 km/h (1 Bft)
09.01.2006 05:00 -6,3 C 100 % 1026 hPa 0,0 l/m N 0,9 km/h (0 Bft)
09.01.2006 06:00 -6,4 C 100 % 1026 hPa 0,0 l/m N 0,1 km/h (0 Bft)
09.01.2006 07:00 -6,6 C 100 % 1027 hPa 0,0 l/m N 0,3 km/h (0 Bft)
09.01.2006 08:00 -6,7 C 100 % 1027 hPa 0,0 l/m N 0,7 km/h (0 Bft)
09.01.2006 09:00 -6,6 C 100 % 1027 hPa 0,0 l/m N 1,0 km/h (0 Bft)
09.01.2006 10:00 -6,4 C 99 % 1027 hPa 0,0 l/m N 1,0 km/h (0 Bft)
09.01.2006 11:00 -6,2 C 96 % 1027 hPa 0,0 l/m N 3,5 km/h (1 Bft)
09.01.2006 12:00 -6,1 C 91 % 1027 hPa 0,0 l/m N 4,0 km/h (1 Bft)
09.01.2006 13:00 -5,5 C 88 % 1026 hPa 0,0 l/m N 0,9 km/h (0 Bft)
09.01.2006 14:00 -5,1 C 87 % 1026 hPa 0,0 l/m N 0,5 km/h (0 Bft)
09.01.2006 15:00 -5,1 C 87 % 1026 hPa 0,0 l/m N 0,3 km/h (0 Bft)
09.01.2006 16:00 -5,3 C 88 % 1026 hPa 0,0 l/m N 1,5 km/h (1 Bft)
09.01.2006 17:00 -5,7 C 90 % 1027 hPa 0,0 l/m N 1,3 km/h (1 Bft)
09.01.2006 18:00 -5,9 C 93 % 1027 hPa 0,0 l/m N 1,1 km/h (0 Bft)
09.01.2006 19:00 -6,2 C 93 % 1027 hPa 0,0 l/m N 0,3 km/h (0 Bft)
09.01.2006 20:00 -6,3 C 94 % 1027 hPa 0,0 l/m N 1,2 km/h (1 Bft)
09.01.2006 21:00 -6,2 C 96 % 1027 hPa 0,0 l/m N 3,1 km/h (1 Bft)
09.01.2006 22:00 -6,3 C 97 % 1027 hPa 0,0 l/m N 4,5 km/h (1 Bft)
09.01.2006 23:00 -6,6 C 97 % 1028 hPa 0,0 l/m N 4,3 km/h (1 Bft)
10.01.2006 00:00 -6,3 C 98 % 1028 hPa 0,0 l/m N 1,6 km/h (1 Bft)
10.01.2006 01:00 -6,0 C 99 % 1028 hPa 0,0 l/m N 2,9 km/h (1 Bft)
10.01.2006 02:00 -5,9 C 99 % 1028 hPa 0,0 l/m N 4,4 km/h (1 Bft)
10.01.2006 03:00 -5,6 C 100 % 1028 hPa 0,0 l/m N 4,8 km/h (1 Bft)
10.01.2006 04:00 -5,4 C 100 % 1028 hPa 0,0 l/m N 6,6 km/h (2 Bft)
10.01.2006 05:00 -5,3 C 100 % 1028 hPa 0,0 l/m N 4,3 km/h (1 Bft)
10.01.2006 06:00 -5,5 C 100 % 1028 hPa 0,0 l/m N 5,2 km/h (1 Bft)
10.01.2006 07:00 -5,7 C 100 % 1029 hPa 0,0 l/m N 4,9 km/h (1 Bft)
10.01.2006 08:00 -6,0 C 100 % 1029 hPa 0,0 l/m N 2,7 km/h (1 Bft)
10.01.2006 09:00 -6,0 C 99 % 1030 hPa 0,0 l/m N 1,7 km/h (1 Bft)
10.01.2006 10:00 -5,7 C 98 % 1030 hPa 0,0 l/m N 3,5 km/h (1 Bft)
10.01.2006 11:00 -5,1 C 98 % 1030 hPa 0,0 l/m N 4,5 km/h (1 Bft)
10.01.2006 12:00 -4,5 C 93 % 1029 hPa 0,0 l/m N 2,5 km/h (1 Bft)
10.01.2006 13:00 -4,0 C 88 % 1029 hPa 0,0 l/m N 2,6 km/h (1 Bft)
10.01.2006 14:00 -3,5 C 84 % 1029 hPa 0,0 l/m N 3,0 km/h (1 Bft)
10.01.2006 15:00 -4,0 C 85 % 1029 hPa 0,0 l/m N 4,0 km/h (1 Bft)
10.01.2006 16:00 -4,6 C 88 % 1029 hPa 0,0 l/m N 0,2 km/h (0 Bft)
10.01.2006 17:00 -5,2 C 91 % 1029 hPa 0,0 l/m N 0,2 km/h (0 Bft)
10.01.2006 18:00 -5,7 C 93 % 1029 hPa 0,0 l/m N 4,1 km/h (1 Bft)
10.01.2006 19:00 -6,0 C 94 % 1029 hPa 0,0 l/m N 2,3 km/h (1 Bft)
10.01.2006 20:00 -6,2 C 96 % 1029 hPa 0,0 l/m N 2,3 km/h (1 Bft)
10.01.2006 21:00 -6,5 C 97 % 1029 hPa 0,0 l/m SO 2,3 km/h (1 Bft)
10.01.2006 22:00 -6,9 C 98 % 1029 hPa 0,0 l/m N 0,0 km/h (0 Bft)
10.01.2006 23:00 -7,5 C 97 % 1029 hPa 0,0 l/m N 0,0 km/h (0 Bft)
11.01.2006 00:00 -7,6 C 97 % 1029 hPa 0,0 l/m N 0,0 km/h (0 Bft)
11.01.2006 01:00 -7,9 C 96 % 1029 hPa 0,0 l/m SO 0,4 km/h (0 Bft)
11.01.2006 02:00 -8,5 C 95 % 1028 hPa 0,0 l/m SO 1,6 km/h (1 Bft)
11.01.2006 03:00 -8,9 C 95 % 1029 hPa 0,0 l/m SO 1,7 km/h (1 Bft)
11.01.2006 04:00 -8,8 C 95 % 1029 hPa 0,0 l/m SO 0,5 km/h (0 Bft)
11.01.2006 05:00 -8,3 C 96 % 1028 hPa 0,0 l/m SO 2,2 km/h (1 Bft)
11.01.2006 06:00 -7,4 C 97 % 1028 hPa 0,0 l/m SO 1,8 km/h (1 Bft)
11.01.2006 07:00 -6,3 C 98 % 1029 hPa 0,0 l/m SO 5,2 km/h (1 Bft)
11.01.2006 08:00 -6,3 C 99 % 1029 hPa 0,0 l/m S-SO 7,6 km/h (2 Bft)
11.01.2006 09:00 -6,8 C 97 % 1030 hPa 0,0 l/m S-SO 5,1 km/h (1 Bft)
11.01.2006 10:00 -6,4 C 96 % 1030 hPa 0,0 l/m S 6,5 km/h (2 Bft)
11.01.2006 11:00 -5,8 C 94 % 1029 hPa 0,0 l/m S 8,3 km/h (2 Bft)
11.01.2006 12:00 -5,4 C 93 % 1029 hPa 0,0 l/m S 9,8 km/h (2 Bft)
11.01.2006 13:00 -5,4 C 92 % 1028 hPa 0,0 l/m S-SO 10,5 km/h (2 Bft)
11.01.2006 14:00 -5,1 C 90 % 1028 hPa 0,0 l/m SO 10,0 km/h (2 Bft)
11.01.2006 15:00 -5,2 C 87 % 1029 hPa 0,0 l/m SO 8,9 km/h (2 Bft)
11.01.2006 16:00 -5,9 C 89 % 1029 hPa 0,0 l/m S 8,6 km/h (2 Bft)
11.01.2006 17:00 -6,3 C 93 % 1029 hPa 0,0 l/m S-SO 7,9 km/h (2 Bft)
11.01.2006 18:00 -6,6 C 95 % 1029 hPa 0,0 l/m S-SO 7,0 km/h (2 Bft)
11.01.2006 19:00 -6,8 C 97 % 1029 hPa 0,0 l/m S-SO 7,3 km/h (2 Bft)
11.01.2006 20:00 -6,9 C 97 % 1030 hPa 0,0 l/m S 6,6 km/h (2 Bft)
11.01.2006 21:00 -7,1 C 98 % 1030 hPa 0,0 l/m S 2,9 km/h (1 Bft)
11.01.2006 22:00 -7,3 C 97 % 1030 hPa 0,0 l/m S-SO 1,0 km/h (0 Bft)
11.01.2006 23:00 -8,2 C 97 % 1030 hPa 0,0 l/m N 0,0 km/h (0 Bft)
12.01.2006 00:00 -8,0 C 96 % 1030 hPa 0,0 l/m S 1,0 km/h (0 Bft)
12.01.2006 01:00 -8,2 C 95 % 1030 hPa 0,0 l/m S-SO 1,6 km/h (1 Bft)
12.01.2006 02:00 -8,0 C 96 % 1030 hPa 0,0 l/m N 0,3 km/h (0 Bft)
12.01.2006 03:00 -8,3 C 95 % 1030 hPa 0,0 l/m N 0,0 km/h (0 Bft)
12.01.2006 04:00 -8,5 C 95 % 1030 hPa 0,0 l/m N 0,0 km/h (0 Bft)
12.01.2006 05:00 -8,3 C 94 % 1030 hPa 0,0 l/m N 0,0 km/h (0 Bft)
12.01.2006 06:00 -8,3 C 94 % 1030 hPa 0,0 l/m N 0,0 km/h (0 Bft)
12.01.2006 07:00 -8,3 C 94 % 1030 hPa 0,0 l/m N 0,0 km/h (0 Bft)
12.01.2006 08:00 -8,5 C 93 % 1030 hPa 0,0 l/m N 0,0 km/h (0 Bft)
12.01.2006 09:00 -7,9 C 93 % 1030 hPa 0,0 l/m N 0,0 km/h (0 Bft)
12.01.2006 10:00 -6,2 C 94 % 1030 hPa 0,0 l/m N 0,0 km/h (0 Bft)
12.01.2006 11:00 -4,4 C 95 % 1030 hPa 0,0 l/m N 0,0 km/h (0 Bft)
12.01.2006 12:00 -2,7 C 93 % 1030 hPa 0,0 l/m SW 1,7 km/h (1 Bft)
12.01.2006 13:00 -1,0 C 72 % 1029 hPa 0,0 l/m NW 7,4 km/h (2 Bft)
12.01.2006 14:00 -0,8 C 63 % 1029 hPa 0,0 l/m N-NW 11,8 km/h (2 Bft)
12.01.2006 15:00 -1,8 C 65 % 1029 hPa 0,0 l/m N-NW 10,7 km/h (2 Bft)
12.01.2006 16:00 -3,1 C 73 % 1029 hPa 0,0 l/m NW 14,4 km/h (3 Bft)
12.01.2006 17:00 -3,9 C 77 % 1029 hPa 0,0 l/m NW 14,0 km/h (3 Bft)
12.01.2006 18:00 -4,5 C 81 % 1029 hPa 0,0 l/m N-NW 12,8 km/h (3 Bft)
12.01.2006 19:00 -5,0 C 82 % 1029 hPa 0,0 l/m N-NW 11,7 km/h (2 Bft)
12.01.2006 20:00 -5,6 C 83 % 1029 hPa 0,0 l/m NW 9,8 km/h (2 Bft)
12.01.2006 21:00 -5,9 C 85 % 1029 hPa 0,0 l/m W-NW 10,7 km/h (2 Bft)
12.01.2006 22:00 -6,5 C 86 % 1029 hPa 0,0 l/m N-NW 8,8 km/h (2 Bft)
12.01.2006 23:00 -7,0 C 87 % 1028 hPa 0,0 l/m NW 5,3 km/h (1 Bft)
13.01.2006 00:00 -8,1 C 88 % 1028 hPa 0,0 l/m N 0,0 km/h (0 Bft)
13.01.2006 01:00 -8,8 C 88 % 1028 hPa 0,0 l/m W-NW 5,6 km/h (1 Bft)
13.01.2006 02:00 -9,0 C 89 % 1028 hPa 0,0 l/m W-NW 2,2 km/h (1 Bft)
13.01.2006 03:00 -8,7 C 90 % 1029 hPa 0,0 l/m W 2,5 km/h (1 Bft)
13.01.2006 04:00 -8,3 C 93 % 1029 hPa 0,0 l/m N-NW 2,4 km/h (1 Bft)
13.01.2006 05:00 -8,2 C 95 % 1029 hPa 0,0 l/m N 6,3 km/h (2 Bft)
13.01.2006 06:00 -8,6 C 96 % 1029 hPa 0,0 l/m N 4,8 km/h (1 Bft)
13.01.2006 07:00 -9,0 C 95 % 1029 hPa 0,0 l/m N 1,8 km/h (1 Bft)
13.01.2006 08:00 -9,1 C 95 % 1030 hPa 0,0 l/m N 0,2 km/h (0 Bft)
13.01.2006 09:00 -9,2 C 94 % 1030 hPa 0,0 l/m N 0,8 km/h (0 Bft)
13.01.2006 10:00 -8,7 C 93 % 1030 hPa 0,0 l/m N 0,3 km/h (0 Bft)
13.01.2006 11:00 -8,0 C 93 % 1030 hPa 0,0 l/m N 1,1 km/h (0 Bft)
13.01.2006 12:00 -7,3 C 93 % 1030 hPa 0,0 l/m N 0,6 km/h (0 Bft)
13.01.2006 13:00 -6,8 C 91 % 1029 hPa 0,0 l/m N 1,1 km/h (0 Bft)
13.01.2006 14:00 -5,8 C 89 % 1029 hPa 0,0 l/m N 0,5 km/h (0 Bft)
13.01.2006 15:00 -4,5 C 80 % 1029 hPa 0,0 l/m N 0,0 km/h (0 Bft)
13.01.2006 16:00 -5,6 C 77 % 1029 hPa 0,0 l/m N 0,0 km/h (0 Bft)
13.01.2006 17:00 -7,3 C 80 % 1029 hPa 0,0 l/m N 0,0 km/h (0 Bft)
13.01.2006 18:00 -8,4 C 82 % 1029 hPa 0,0 l/m N 0,0 km/h (0 Bft)
13.01.2006 19:00 -9,3 C 83 % 1029 hPa 0,0 l/m W-NW 5,0 km/h (1 Bft)
13.01.2006 20:00 -10,9 C 84 % 1029 hPa 0,0 l/m W-NW 8,5 km/h (2 Bft)
13.01.2006 21:00 -10,2 C 86 % 1029 hPa 0,0 l/m W 2,7 km/h (1 Bft)
13.01.2006 22:00 -9,9 C 93 % 1029 hPa 0,0 l/m W-NW 0,9 km/h (0 Bft)
13.01.2006 23:00 -10,3 C 93 % 1029 hPa 0,0 l/m N 0,5 km/h (0 Bft)
14.01.2006 00:00 -10,9 C 93 % 1029 hPa 0,0 l/m NW 0,6 km/h (0 Bft)
14.01.2006 01:00 -11,0 C 93 % 1029 hPa 0,0 l/m W-NW 4,1 km/h (1 Bft)
14.01.2006 02:00 -11,0 C 93 % 1029 hPa 0,0 l/m NW 1,1 km/h (0 Bft)
14.01.2006 03:00 -10,9 C 93 % 1029 hPa 0,0 l/m NW 0,3 km/h (0 Bft)
14.01.2006 04:00 -11,0 C 93 % 1029 hPa 0,0 l/m N 0,0 km/h (0 Bft)
14.01.2006 05:00 -11,2 C 93 % 1029 hPa 0,0 l/m N 0,0 km/h (0 Bft)
14.01.2006 06:00 -11,5 C 93 % 1029 hPa 0,0 l/m N 0,1 km/h (0 Bft)
14.01.2006 07:00 -11,8 C 93 % 1029 hPa 0,0 l/m N 0,0 km/h (0 Bft)
14.01.2006 08:00 -12,5 C 93 % 1030 hPa 0,0 l/m N 0,0 km/h (0 Bft)
14.01.2006 09:00 -12,3 C 93 % 1030 hPa 0,0 l/m N 0,0 km/h (0 Bft)
14.01.2006 10:00 -11,8 C 93 % 1030 hPa 0,0 l/m N 0,0 km/h (0 Bft)
14.01.2006 11:00 -10,9 C 93 % 1030 hPa 0,0 l/m N 0,0 km/h (0 Bft)
14.01.2006 12:00 -8,8 C 87 % 1029 hPa 0,0 l/m N 0,0 km/h (0 Bft)
14.01.2006 13:00 -6,8 C 82 % 1028 hPa 0,0 l/m N 0,0 km/h (0 Bft)
14.01.2006 14:00 -5,8 C 70 % 1028 hPa 0,0 l/m N 0,0 km/h (0 Bft)
14.01.2006 15:00 -5,7 C 66 % 1028 hPa 0,0 l/m N 0,0 km/h (0 Bft)
14.01.2006 16:00 -6,9 C 71 % 1027 hPa 0,0 l/m N 0,0 km/h (0 Bft)
14.01.2006 17:00 -8,6 C 76 % 1027 hPa 0,0 l/m N 0,0 km/h (0 Bft)
14.01.2006 18:00 -10,0 C 79 % 1027 hPa 0,0 l/m N 0,0 km/h (0 Bft)
14.01.2006 19:00 -11,0 C 79 % 1027 hPa 0,0 l/m N 0,0 km/h (0 Bft)
14.01.2006 20:00 -10,7 C 79 % 1027 hPa 0,0 l/m N 0,3 km/h (0 Bft)
14.01.2006 21:00 -10,6 C 79 % 1027 hPa 0,0 l/m N 0,1 km/h (0 Bft)
14.01.2006 22:00 -10,4 C 79 % 1027 hPa 0,0 l/m N 0,7 km/h (0 Bft)
14.01.2006 23:00 -10,5 C 79 % 1026 hPa 0,0 l/m N 2,1 km/h (1 Bft)
15.01.2006 00:00 -10,8 C 79 % 1026 hPa 0,0 l/m N 0,9 km/h (0 Bft)
15.01.2006 01:00 -11,0 C 79 % 1026 hPa 0,0 l/m N 0,0 km/h (0 Bft)
15.01.2006 02:00 -11,1 C 79 % 1026 hPa 0,0 l/m N 0,0 km/h (0 Bft)
15.01.2006 03:00 -11,2 C 79 % 1025 hPa 0,0 l/m N 0,0 km/h (0 Bft)
15.01.2006 04:00 -11,2 C 79 % 1025 hPa 0,0 l/m N 1,0 km/h (0 Bft)
15.01.2006 05:00 -11,4 C 79 % 1025 hPa 0,0 l/m N 0,6 km/h (0 Bft)
15.01.2006 06:00 -11,6 C 79 % 1024 hPa 0,0 l/m N 0,2 km/h (0 Bft)
15.01.2006 07:00 -12,0 C 79 % 1024 hPa 0,0 l/m N 1,5 km/h (1 Bft)
15.01.2006 08:00 -12,3 C 79 % 1024 hPa 0,0 l/m N 1,0 km/h (0 Bft)
15.01.2006 09:00 -12,3 C 79 % 1025 hPa 0,0 l/m N 0,5 km/h (0 Bft)
15.01.2006 10:00 -11,5 C 79 % 1025 hPa 0,0 l/m N 1,1 km/h (0 Bft)
15.01.2006 11:00 -10,8 C 79 % 1025 hPa 0,0 l/m N 0,6 km/h (0 Bft)
15.01.2006 12:00 -9,6 C 86 % 1025 hPa 0,0 l/m N 0,2 km/h (0 Bft)
15.01.2006 13:00 -8,0 C 87 % 1024 hPa 0,0 l/m N 0,7 km/h (0 Bft)
15.01.2006 14:00 -7,8 C 83 % 1024 hPa 0,0 l/m N 0,8 km/h (0 Bft)
15.01.2006 15:00 -7,3 C 82 % 1023 hPa 0,0 l/m N 0,0 km/h (0 Bft)
15.01.2006 16:00 -7,3 C 80 % 1023 hPa 0,0 l/m N 0,0 km/h (0 Bft)
15.01.2006 17:00 -9,1 C 80 % 1023 hPa 0,0 l/m N 0,0 km/h (0 Bft)
15.01.2006 18:00 -9,9 C 82 % 1023 hPa 0,0 l/m N 0,0 km/h (0 Bft)
15.01.2006 19:00 -10,9 C 83 % 1023 hPa 0,0 l/m N 0,0 km/h (0 Bft)
15.01.2006 20:00 -11,8 C 83 % 1023 hPa 0,0 l/m N 0,0 km/h (0 Bft)
15.01.2006 21:00 -12,5 C 83 % 1023 hPa 0,0 l/m N 0,8 km/h (0 Bft)
15.01.2006 22:00 -13,0 C 83 % 1023 hPa 0,0 l/m N 1,1 km/h (0 Bft)
15.01.2006 23:00 -13,0 C 83 % 1023 hPa 0,0 l/m N 1,4 km/h (1 Bft)
Min-Datum _ 15.01.06 12.01.06 15.01.06 - - 09.01.06
_ Min-Zeit 22:44 13:51 14:18 - - 00:00
Minimum _ -13,1 C 61 % 1023 hPa - - 0,0 km/h (0 Bft)
Max-Datum _ 12.01.06 09.01.06 10.01.06 09.01.06 - 12.01.06
_ Max-Zeit 13:56 02:44 09:31 00:00 - 14:50
Maximum _ -0,3 C 100 % 1030 hPa 0,0 l/m - 21,7 km/h
N-NW (4 Bft)
Durchschnitt _ -7,6 C 90 % 1028 hPa #0,0 l/m N 2,6 km/h (1 Bft)

Durchschnitt Minimum Temp.-7,9 C
Durchschnitt Maximum Temp.-7,4 C